Torna al catalogo

NOAA 16 DEB

AttivoPO
NORAD 41520·DEBRIS·🇺🇸 United States

Lanciato Sep 21, 2000 da Vandenberg Space Force Base

Loading…

Prossimi Passaggi (prossime 24 ore)

TLE

AggiornatoSource: Space-Track

Epoca: Sep 14, 2026, 09:36 UTC

1 41520U 00055MU  26257.40060724  .00040157  00000-0  39056-2 0  9999
2 41520  98.8584  61.7724 0013591  31.8573 328.3462 14.92350521540086

Traccia NOAA 16 DEB in tempo reale con AllMySat

Download on the App Store